Location: Bairro Camarista M�ier
(22.9137°S, 43.2991°W)
Time: 09:08:27
(UTC+00:00)

Daily predictions for brighter satellites

Satellite Brightness Start Highest point End
(mag) Time Altitude Azimuth Time Altitude Azimuth Time Altitude Azimuth
H-II Stage 2 4.4 20:16:30 10° W 20:20:04 41° N 20:35:41 10° NE
STARLINK-1046 4.2 20:30:30 10° NNW 20:34:25 42° NE 20:38:23 10° SE
GPS 2-17 Rocket1 3.7 20:31:54 10° WNW 20:36:36 53° N 20:41:12 10° E
Lacrosse 5 rocket 4.0 20:36:24 10° W 20:38:57 16° SW 20:41:37 10° S
STARLINK-1039 4.0 20:35:21 10° NNW 20:39:21 48° NE 20:43:23 10° SE
YAOGAN 6 3.8 20:36:30 10° SE 20:39:31 24° E 20:42:29 10° NNE
Cosmos 1802 Rocket 4.4 20:33:59 10° NNE 20:40:03 45° E 20:46:09 10° SSE
Cosmos 1707 Rocket 3.5 20:36:08 10° S 20:40:33 77° E 20:44:53 10° N
SMAP 3.5 20:36:45 10° SSE 20:41:13 43° E 20:45:37 10° N
STARLINK-1045 3.9 20:40:17 10° NNW 20:44:20 55° NE 20:48:25 10° SE
H-2A R/B 2.8 20:42:30 10° S 20:46:26 86° W 20:50:20 10° NNW
STARLINK-1050 3.7 20:45:12 10° NNW 20:49:18 64° NE 20:53:26 10° SE
Cosmos 2056 Rocket 3.6 20:44:44 10° S 20:49:52 53° ESE 20:54:53 10° NNE
FUSE 4.0 20:45:46 10° W 20:51:06 70° S 20:56:16 11° E
Cosmos 389 Rocket 3.9 20:51:31 10° SE 20:53:55 17° E 20:56:17 10° ENE
STARLINK-1055 3.6 20:50:08 10° NNW 20:54:16 74° NE 20:58:22 10° SE
Cosmos 1862 Rocket 3.9 20:50:54 10° S 20:55:15 46° E 20:59:32 10° NNE
Cosmos 1602 4.3 20:52:16 10° NNE 20:55:47 35° E 20:59:21 10° SSE
Meteor 1-25 Rocket 4.2 20:50:46 10° N 20:56:17 72° E 21:01:51 10° SSE
STARLINK-60 3.4 20:53:42 10° SW 20:56:54 66° NW 21:00:03 10° NNE
NOAA 12 4.4 20:51:56 10° SSE 20:57:01 48° E 21:02:02 10° N
STARLINK-1022 3.6 20:55:05 10° NW 20:59:14 85° NE 21:03:08 12° SE
Radarsat Rocket 4.4 20:55:27 10° SSE 21:02:30 81° WSW 21:08:41 10° NNW
STARLINK-1042 3.6 21:00:02 10° NW 21:04:11 84° SW 21:07:55 13° SE
IRS-1C Rocket 4.4 21:02:36 10° SSE 21:07:40 44° E 21:12:38 10° N
STARLINK-1056 3.8 21:05:02 10° NW 21:09:10 74° SW 21:12:43 14° SSE
Meteor 1-20 Rocket 4.4 21:05:11 10° N 21:10:51 79° W 21:16:43 10° S
CZ-4 R/B 3.1 21:13:44 17° E 21:13:44 17° E 21:16:10 10° NE
STARLINK-1054 3.9 21:10:01 10° NW 21:14:07 64° SW 21:17:28 15° SSE
Cosmos 1869 Rocket 4.2 21:10:59 10° NNE 21:14:54 34° E 21:17:47 16° SE
Helios 1A Rocket 2.8 21:11:34 10° SSE 21:15:39 76° ENE 21:19:41 10° N
CORIOLIS 4.1 21:10:55 10° SSE 21:16:24 85° ENE 21:21:48 10° NNW
Okean O Rocket 3.2 21:12:35 10° S 21:16:40 36° WSW 21:20:45 10° NW
Atlas 2A Centaur Rocket 1.8 21:14:53 10° WSW 21:16:53 36° S 21:17:56 26° SE
NOSS 2-2 (E) 3.9 21:10:41 10° SSW 21:17:00 74° ESE 21:21:33 10° NNE
STARLINK-1062 4.2 21:15:03 10° NW 21:19:07 56° SW 21:22:17 16° SSE
Cosmos 1933 Rocket 4.1 21:14:58 10° NNW 21:19:15 59° W 21:23:36 10° S
Cosmos 1420 Rocket 4.1 21:14:34 10° S 21:19:45 50° ESE 21:24:49 10° NNE
Cosmos 1452 Rocket 4.2 21:15:18 10° S 21:19:59 31° ESE 21:24:38 10° NE
FALCON 9 DEB 3.8 21:17:36 10° SSW 21:20:48 33° SE 21:21:18 31° ESE
Meteor 1-14 Rocket 4.2 21:16:01 10° N 21:21:39 72° E 21:27:29 10° SSE
Envisat 3.4 21:17:15 10° S 21:22:20 67° WSW 21:27:22 10° NNW
Cosmos 1461 2.9 21:19:43 10° SSW 21:23:35 71° WNW 21:27:25 10° NNE
BREEZE-M DEB (TANK) 3.7 21:11:33 10° NW 21:23:49 64° SW 21:26:28 19° SSE
STARLINK-1053 4.4 21:20:05 10° NW 21:24:07 49° SW 21:27:04 17° SSE
Cosmos 494 Rocket 3.9 21:19:51 10° N 21:24:56 72° ENE 21:29:41 12° SSE
ARGOS Delta rocket 4.5 21:23:12 18° SE 21:26:32 37° E 21:31:04 10° NNE
STARLINK-29 3.0 21:23:25 10° SW 21:26:42 81° NW 21:29:47 11° NE
Cosmos 1703 Rocket 4.0 21:26:21 10° SSE 21:30:25 36° E 21:34:26 10° NNE
SL-16 R/B 3.8 21:29:42 10° NW 21:34:46 33° WSW 21:39:53 10° S
Meteosat 1 Rocket2 3.9 21:29:06 10° W 21:36:40 69° SSW 21:39:00 34° ESE
Longmarch 3A Rocket 3.1 21:18:33 10° W 21:38:17 68° SSW 21:40:19 35° ESE
NOAA 11 4.3 21:36:21 20° SSE 21:40:02 54° E 21:45:24 10° N
ATLAS 2AS CENTAUR R/B 4.2 21:35:32 10° S 21:38:01 17° SSE 21:38:01 17° SSE
Cosmos 1500 3.8 21:37:37 10° NNE 21:40:28 38° NE 21:40:28 38° NE
NOSS 2-2 (C) 4.1 21:35:12 10° SSW 21:41:35 79° WNW 21:46:11 10° NNE
Delta 142 4.0 21:40:38 10° WSW 21:44:42 44° S 21:45:23 41° SE
CZ-2C R/B 4.5 21:40:34 10° NE 21:41:36 15° NE 21:41:36 15° NE
CZ-4 R/B 4.3 21:52:14 65° SE 21:52:45 77° ENE 21:56:52 10° N
Cosmos 2278 Rocket 3.9 21:48:50 10° SW 21:53:51 33° WNW 21:58:51 10° NNW
Meteor 1-11 Rocket 4.1 21:53:33 10° NNE 21:57:55 42° ENE 21:57:55 42° ENE
Cosmos 405 Rocket 3.2 21:55:59 10° N 21:58:47 48° N 21:58:47 48° N
Cosmos 1943 3.0 21:55:28 10° N 22:01:02 71° ENE 22:02:08 56° SE
Cosmos 1184 Rocket 4.1 21:58:49 10° NNW 22:00:53 35° NNW 22:00:53 35° NNW
ATLAS 5 CENTAUR R/B 3.8 21:59:42 10° N 22:01:58 16° NE 22:01:58 16° NE
Cosmos 371 Rocket 3.3 21:58:39 10° SSW 22:03:30 78° WNW 22:08:18 10° N
Cosmos 1816 Rocket 4.4 21:58:11 10° S 22:04:30 85° E 22:10:40 10° N
OAO 3 Rocket 3.6 21:59:48 10° NW 22:04:30 51° NNE 22:04:30 51° NNE
Cosmos 1603 3.7 21:59:27 10° NNW 22:05:11 81° WSW 22:07:28 39° S
Cosmos 1269 Rocket 4.2 22:01:07 10° NNW 22:06:21 68° WSW 22:08:37 34° S
Okean-O 3.0 22:05:36 38° SSW 22:07:09 61° WSW 22:11:31 10° NNW
Okean 1-7 3.2 22:09:31 68° NNW 22:09:31 68° NNW 22:13:24 10° N
Cosmos 44 3.4 22:07:12 10° NNW 22:12:03 69° NNE 22:12:03 69° NNE
YAOGAN 1 3.8 22:20:31 34° NNW 22:20:31 34° NNW 22:22:58 10° NNW
GPS 2-17 Rocket1 3.7 22:15:15 10° W 22:19:09 53° NW 22:19:09 53° NW
Atlas Centaur 2 3.3 22:15:51 10° NW 22:23:34 53° NNE 22:24:39 50° NE
CZ-3A R/B 3.5 21:50:30 10° W 22:26:37 84° S 22:29:07 57° ESE
Delta 7925 Rocket 4.2 22:30:44 10° WNW 22:34:53 48° WNW 22:34:53 48° WNW
CZ-4 R/B 4.0 22:49:45 19° WNW 22:49:45 19° WNW 22:51:39 10° NW
Aurora 2 Rocket 4.2 22:45:08 10° WNW 22:55:27 86° WNW 22:55:27 86° WNW
Centaur D AC-25 4.0 22:59:28 10° WSW 23:10:56 55° WSW 23:10:56 55° WSW
